Weather History for Caldwell, TX

Change the Weather History Date:

Tuesday, January 7, 2014

  Actual Average (KCLL) Record (KCLL)
Temperature  
Mean Temperature 30 °F 51 °F  
Max Temperature 44 °F 60 °F 82 °F (1978)
Min Temperature 17 °F 41 °F 15 °F (1912)
Degree Days  
Heating Degree Days 34 15  
Month to date heating degree days 105  
Since 1 July heating degree days 741  
Cooling Degree Days 0 0  
Month to date cooling degree days 0  
Year to date cooling degree days 0  
Moisture  
Dew Point 14 °F    
Average Humidity 53    
Maximum Humidity 93    
Minimum Humidity 19    
Precipitation  
Precipitation 0.00 in 0.10 in 1.60 in (2000)
Month to date precipitation 0.71  
Year to date precipitation 0.71  
Sea Level Pressure  
Sea Level Pressure 30.55 in    
Wind  
Wind Speed 4 mph (SSW)    
Max Wind Speed 20 mph    
Max Gust Speed 24 mph    
Visibility 10 miles    
Events      
T = Trace of Precipitation, MM = Missing Value Source: NWS Daily Summary

Daily Weather History Graph

Daily Weather History Graph

Search for Another Location

Airport:

Trip Planner

Search our weather history database for the weather conditions in past years. The results will help you decide how hot, cold, wet, or windy it might be!

Date:

Astronomy

Jan. 07, 2014 Rise Set
Actual Time 7:24 AM CST 5:41 PM CST
Civil Twilight 6:58 AM CST 6:07 PM CST
Nautical Twilight 6:28 AM CST 6:37 PM CST
Astronomical Twilight 5:59 AM CST 7:06 PM CST
Moon 11:45 AM CST (1/7) No Moon Set
Length of Visible Light 11h 09m
Length of Day
10h 16m
Waxing Crescent, 46% of the Moon is Illuminated
Jan 7
Waxing Crescent
Jan 7
First Quarter
Jan 15
Full
Jan 23
Last Quarter
Jan 30
New

Hourly Weather History & Observations

Time (CST) Temp. Windchill Dew Point Humidity Pressure Visibility Wind Dir Wind Speed Gust Speed Precip Events Conditions
12:15 AM 23.0 °F - 14.0 °F 68% 30.68 in 10.0 mi Calm Calm - N/A   Unknown
12:35 AM 24.8 °F - 14.0 °F 64% 30.66 in 10.0 mi Calm Calm - N/A   Unknown
12:55 AM 23.0 °F - 19.4 °F 86% 30.66 in 10.0 mi Calm Calm - N/A   Unknown
1:15 AM 23.0 °F - 17.6 °F 80% 30.66 in 10.0 mi Calm Calm - N/A   Unknown
1:35 AM 23.0 °F - 15.8 °F 74% 30.65 in 10.0 mi Calm Calm - N/A   Unknown
1:55 AM 23.0 °F - 15.8 °F 74% 30.64 in 10.0 mi Calm Calm - N/A   Unknown
2:15 AM 21.2 °F - 17.6 °F 86% 30.64 in 10.0 mi Calm Calm - N/A   Unknown
2:35 AM 21.2 °F - 15.8 °F 80% 30.64 in 10.0 mi Calm Calm - N/A   Unknown
2:55 AM 21.2 °F - 17.6 °F 86% 30.64 in 10.0 mi Calm Calm - N/A   Unknown
3:15 AM 19.4 °F - 17.6 °F 93% 30.64 in 10.0 mi Calm Calm - N/A   Unknown
3:35 AM 21.2 °F - 14.0 °F 74% 30.64 in 10.0 mi Calm Calm - N/A   Unknown
3:55 AM 21.2 °F - 15.8 °F 80% 30.64 in 10.0 mi Calm Calm - N/A   Unknown
4:15 AM 21.2 °F - 15.8 °F 80% 30.64 in 10.0 mi Calm Calm - N/A   Unknown
4:35 AM 21.2 °F - 15.8 °F 80% 30.64 in 10.0 mi Calm Calm - N/A   Unknown
4:55 AM 21.2 °F - 14.0 °F 74% 30.64 in 10.0 mi Calm Calm - N/A   Unknown
5:15 AM 19.4 °F - 14.0 °F 80% 30.64 in 10.0 mi Calm Calm - N/A   Unknown
5:35 AM 21.2 °F - 14.0 °F 74% 30.64 in 10.0 mi Calm Calm - N/A   Unknown
5:55 AM 19.4 °F - 14.0 °F 80% 30.64 in 10.0 mi Calm Calm - N/A   Unknown
6:15 AM 19.4 °F - 14.0 °F 80% 30.64 in 10.0 mi Calm Calm - N/A   Unknown
6:35 AM 19.4 °F - 14.0 °F 80% 30.64 in 10.0 mi Calm Calm - N/A   Unknown
6:55 AM 19.4 °F - 14.0 °F 80% 30.65 in 10.0 mi Calm Calm - N/A   Unknown
7:15 AM 17.6 °F - 14.0 °F 86% 30.65 in 10.0 mi Calm Calm - N/A   Unknown
7:35 AM 17.6 °F - 14.0 °F 86% 30.65 in 10.0 mi Calm Calm - N/A   Unknown
7:55 AM 17.6 °F - 14.0 °F 86% 30.65 in 10.0 mi Calm Calm - N/A   Unknown
8:15 AM 21.2 °F - 17.6 °F 86% 30.65 in 10.0 mi Calm Calm - N/A   Unknown
8:35 AM 21.2 °F - 17.6 °F 86% 30.65 in 10.0 mi Calm Calm - N/A   Unknown
8:55 AM 26.6 °F - 17.6 °F 69% 30.65 in 10.0 mi Calm Calm - N/A   Unknown
9:15 AM 28.4 °F 23.3 °F 19.4 °F 69% 30.65 in 10.0 mi SSW 4.6 mph - N/A   Unknown
9:35 AM 30.2 °F 26.7 °F 17.6 °F 60% 30.65 in 10.0 mi South 3.5 mph - N/A   Unknown
9:55 AM 32.0 °F 27.5 °F 15.8 °F 51% 30.65 in 10.0 mi SSE 4.6 mph - N/A   Unknown
10:15 AM 32.0 °F 24.8 °F 10.4 °F 41% 30.65 in 10.0 mi South 8.1 mph - N/A   Unknown
10:35 AM 33.8 °F 28.6 °F 6.8 °F 32% 30.64 in 10.0 mi South 5.8 mph - N/A   Unknown
10:55 AM 35.6 °F 30.7 °F 8.6 °F 33% 30.64 in 10.0 mi South 5.8 mph - N/A   Unknown
11:15 AM 35.6 °F 29.2 °F 6.8 °F 30% 30.63 in 10.0 mi South 8.1 mph - N/A   Unknown
11:35 AM 37.4 °F 31.4 °F 3.2 °F 24% 30.61 in 10.0 mi SSW 8.1 mph - N/A   Unknown
11:55 AM 37.4 °F 30.8 °F 3.2 °F 24% 30.60 in 10.0 mi South 9.2 mph - N/A   Unknown
12:15 PM 39.2 °F 32.5 °F 1.4 °F 21% 30.58 in 10.0 mi SSW 10.4 mph - N/A   Unknown
12:35 PM 39.2 °F 32.5 °F 1.4 °F 21% 30.56 in 10.0 mi South 10.4 mph - N/A   Unknown
12:55 PM 39.2 °F 33.0 °F 3.2 °F 22% 30.54 in 10.0 mi SW 9.2 mph - N/A   Unknown
1:15 PM 41.0 °F 35.2 °F 5.0 °F 23% 30.53 in 10.0 mi South 9.2 mph - N/A   Unknown
1:35 PM 42.8 °F 38.6 °F 3.2 °F 19% 30.52 in 10.0 mi South 6.9 mph - N/A   Unknown
1:55 PM 42.8 °F 36.2 °F 5.0 °F 21% 30.50 in 10.0 mi South 12.7 mph - N/A   Unknown
2:15 PM 42.8 °F 36.6 °F 5.0 °F 21% 30.49 in 10.0 mi South 11.5 mph 18.4 mph N/A   Unknown
2:35 PM 44.6 °F 38.4 °F 5.0 °F 20% 30.49 in 10.0 mi South 12.7 mph 16.1 mph N/A   Unknown
2:55 PM 44.6 °F 39.7 °F 5.0 °F 20% 30.48 in 10.0 mi SSW 9.2 mph - N/A   Unknown
3:15 PM 44.6 °F 38.8 °F 5.0 °F 20% 30.48 in 10.0 mi South 11.5 mph - N/A   Unknown
3:35 PM 44.6 °F 39.2 °F 8.6 °F 23% 30.47 in 10.0 mi South 10.4 mph - N/A   Unknown
3:55 PM 44.6 °F 38.1 °F 8.6 °F 23% 30.47 in 10.0 mi SSW 13.8 mph - N/A   Unknown
4:15 PM 42.8 °F 36.2 °F 8.6 °F 25% 30.46 in 10.0 mi SSW 12.7 mph - N/A   Unknown
4:35 PM 42.8 °F 37.0 °F 10.4 °F 27% 30.46 in 10.0 mi South 10.4 mph 16.1 mph N/A   Unknown
4:55 PM 42.8 °F 36.2 °F 10.4 °F 27% 30.46 in 10.0 mi South 12.7 mph - N/A   Unknown
5:15 PM 42.8 °F 36.6 °F 10.4 °F 27% 30.46 in 10.0 mi SSW 11.5 mph 16.1 mph N/A   Unknown
5:35 PM 41.0 °F 34.3 °F 10.4 °F 29% 30.45 in 10.0 mi SSW 11.5 mph - N/A   Unknown
5:55 PM 41.0 °F 35.2 °F 10.4 °F 29% 30.46 in 10.0 mi SSW 9.2 mph - N/A   Unknown
6:15 PM 41.0 °F 35.2 °F 10.4 °F 29% 30.45 in 10.0 mi SSW 9.2 mph - N/A   Unknown
6:35 PM 41.0 °F 34.7 °F 12.2 °F 31% 30.44 in 10.0 mi SSW 10.4 mph - N/A   Unknown
6:55 PM 41.0 °F 35.8 °F 12.2 °F 31% 30.44 in 10.0 mi SSW 8.1 mph - N/A   Unknown
7:15 PM 41.0 °F 35.8 °F 14.0 °F 33% 30.43 in 10.0 mi South 8.1 mph - N/A   Unknown
7:35 PM 39.2 °F 35.0 °F 15.8 °F 39% 30.43 in 10.0 mi SSW 5.8 mph - N/A   Unknown
7:55 PM 39.2 °F 33.6 °F 17.6 °F 42% 30.43 in 10.0 mi SSW 8.1 mph - N/A   Unknown
8:15 PM 41.0 °F 35.8 °F 17.6 °F 39% 30.43 in 10.0 mi SSW 8.1 mph - N/A   Unknown
8:35 PM 41.0 °F 36.4 °F 19.4 °F 42% 30.43 in 10.0 mi SSW 6.9 mph - N/A   Unknown
8:55 PM 41.0 °F 35.2 °F 19.4 °F 42% 30.42 in 10.0 mi South 9.2 mph - N/A   Unknown
9:15 PM 41.0 °F 31.9 °F 23.0 °F 49% 30.42 in 10.0 mi South 19.6 mph 24.2 mph N/A   Unknown
9:35 PM 41.0 °F 33.1 °F 26.6 °F 57% 30.42 in 10.0 mi South 15.0 mph 18.4 mph N/A   Unknown
9:55 PM 41.0 °F 33.9 °F 28.4 °F 61% 30.43 in 10.0 mi SSW 12.7 mph - N/A   Unknown
10:15 PM 41.0 °F 33.9 °F 28.4 °F 61% 30.42 in 10.0 mi SSW 12.7 mph - N/A   Unknown
10:35 PM 39.2 °F 32.0 °F 28.4 °F 65% 30.42 in 10.0 mi South 11.5 mph - N/A   Unknown
10:55 PM 39.2 °F 32.0 °F 30.2 °F 70% 30.41 in 10.0 mi SSW 11.5 mph - N/A   Unknown
11:15 PM 39.2 °F 33.0 °F 30.2 °F 70% 30.40 in 10.0 mi South 9.2 mph - N/A   Unknown
11:35 PM 39.2 °F 33.0 °F 30.2 °F 70% 30.39 in 10.0 mi South 9.2 mph - N/A   Unknown
11:55 PM 39.2 °F 33.0 °F 30.2 °F 70% 30.39 in 10.0 mi South 9.2 mph - N/A   Unknown